Location: Easthampton
(42.2676°N, 72.6690°W)
Time: 07:36:34
(UTC+00:00)

Gurwin Techsat 1B - Pass Details

Date: 05 April 2023
Orbit: 811 x 813 km, 98.9° (Epoch: 02 June)

Event Time Altitude Azimuth Distance (km) Brightness Sun altitude
Rises 08:53:49 0° 2° (N) 3,348 12.2 -17.2°
Reaches altitude 10° 08:56:29 10° 351° (N) 2,412 11.3 -16.8°
Maximum altitude 09:00:50 27° 296° (WNW) 1,540 9.7 -16.1°
Enters shadow 09:02:29 23° 267° (W) 1,689 9.7 -15.8°
